Find Starlink 32639

NORAD ID: 62153 Int'l Des: 2024-224 Owner: SPXS Country: US Constellation: starlink operational
LEOCIRCULAR

リアルタイム位置

3D地球を読み込み中...

Starlink 32639について

説明を読み込み中...

次回通過

Passes for default location (London). Set your location on the main map for personalized predictions.

高度履歴

Loading altitude history...

軌道要素

1 62153U 24224Q 26126.66080583 .00017856 00000-0 65676-3 0 9994
2 62153 43.0007 190.9076 0001709 265.8538 94.2119 15.27582264 81185
Epoch: May 6, 2026 • Age: 15 hours

現在のステータス

高度 490.1 km
速度 7.62 km/s
衛星直下点 -30.01°S, 173.88°E
打ち上げ日 Nov 30, 2024
運用期間 1.4 years
タイプ internet

技術仕様

分類 Payload
質量 730.00 kg
乾燥質量 700.00 kg
総質量 730.00 kg
長さ 0.30 m
直径 4.10 m
スパン 29.00 m
形状 Box + pan
製造者 SPXS
バスタイプ Starlink V2M
フェーズステータス In Orbit
所有者/国 SPXS/US

Most Searched